THORAD DELTA 1 DEB, 42622

Orbit data source: Space-Track

THORAD DELTA 1 DEB, 42622 is space debris in SSO originally from a launch on Fri, 15 Nov 1974 UTC launched from the Air Force Western Test Range (AFWTR). Debris objects in space refer to the collection of defunct objects orbiting the Earth. Examples of debris include non-operational satellites, rocket bodies, and fragments generated from explosions, collisions, or faulty payload assembly.

Loading next visibility...
Identifier
42622, 1974-089GP
Orbit
SSO
Country
Flag of USUS
Related business
Manufacturer
Unknown
Mission
Spacecraft
Bus & Motor
Unknown
Mass
Unknown
Launch date (UTC)
1974-11-15 (52 years ago)
Launch vehicle
Unknown
Launch site
Air Force Western Test Range (AFWTR)
Object type
Payload
Rocket body
Debris
Shape & HBR
Unknown shape, 0.1 m
Radar Cross Section
Medium (>0.1 m² and <1 m²)

Expand to show TLE details & history
Last TLE update: 3 days ago

TLE from 3 days ago
0 THORAD DELTA 1 DEB
1 42622U 74089GP  26170.81916091 -.00000015  00000-0  21029-3 0  9999
2 42622 101.4811 297.6738 0155322 128.8898  25.4401 12.24310617562037
Epoch: 2026-06-19T19:39Z
TLE epoch observation values (Epoch: 2026-06-19T19:39:35.502Z)
Latitude
24.38718°
Longitude
-80.00964°
Altitude
1,465.26 km
Speed
7.182 km/s
True Right ascension
08h 11m 43s
True Declination
24° 16' 11"
Sunlit
Object was in daylight at epoch
Visualization orbit readout
Latitude
Unknown
Longitude
Unknown
Altitude
Unknown
Speed
Unknown
Apparent Right ascension
Unknown
Apparent Declination
Unknown
Sunlit
N/A
Visualization observer readout
Local Sidereal Time
21:41:35
Azimuth
Unknown
Elevation
Unknown
Doppler factor
Unknown
Orbital elements
Apogee altitude
1,694.859 km
Perigee altitude
1,447.912 km
Semi-major axis
7,949.523 km
Eccentricity
0.01553
Inclination
101.4811°
RAAN
297.6738°
Arg. of periapsis
128.8898°
True anomaly
26.21828°
Mean anomaly
25.4401°
Eccentric anomaly
25.82781°
Mean motion
3.06219 °/min
Orbital period
117.56 mins
BSTAR
0.00021029
Loading maneuver chart data...
Computing Atmospheric mass density...

Documentation

Showing up to 5 results
|